FREGAT DEB, 45847

Orbit data source: Space-Track

FREGAT DEB, 45847 is space debris in LEO originally from a launch on Mon, 18 Jul 2011 UTC launched from the Tyuratam Missile And Space Complex (TTMTR). Debris objects in space refer to the collection of defunct objects orbiting the Earth. Examples of debris include non-operational satellites, rocket bodies, and fragments generated from explosions, collisions, or faulty payload assembly.

Loading next visibility...
Identifier
45847, 2011-037CH
Orbit
LEO
Country
Flag of CISCIS
Related business
Manufacturer
Lavochkin
Mission
Spacecraft
Bus & Motor
Unknown
Mass
Unknown
Launch date (UTC)
2011-07-18 (15 years ago)
Launch vehicle
Unknown
Launch site
Tyuratam Missile And Space Complex (TTMTR)
Object type
Payload
Rocket body
Debris
Shape & HBR
Unknown shape, 0.1 m
Radar Cross Section
Medium (>0.1 m² and <1 m²)

Expand to show TLE details & history
Last TLE update: 2 days ago

TLE from 2 days ago
0 FREGAT DEB
1 45847U 11037CH  26171.34915168  .00071846  00000-0  39303-2 0  9990
2 45847  51.3986 227.7872 0847938 111.9188 257.4007 13.74960990262648
Epoch: 2026-06-20T08:22Z
TLE epoch observation values (Epoch: 2026-06-20T08:22:46.705Z)
Latitude
-0.00006°
Longitude
-166.4725°
Altitude
1,167.447 km
Speed
7.179 km/s
True Right ascension
15h 11m 08s
True Declination
0° 00' 00"
Sunlit
Object was in full shadow at epoch
Visualization orbit readout
Latitude
Unknown
Longitude
Unknown
Altitude
Unknown
Speed
Unknown
Apparent Right ascension
Unknown
Apparent Declination
Unknown
Sunlit
N/A
Visualization observer readout
Local Sidereal Time
21:35:59
Azimuth
Unknown
Elevation
Unknown
Doppler factor
Unknown
Orbital elements
Apogee altitude
1,606.448 km
Perigee altitude
358.204 km
Semi-major axis
7,360.463 km
Eccentricity
0.08479
Inclination
51.3986°
RAAN
227.7872°
Arg. of periapsis
111.9188°
True anomaly
248.17244°
Mean anomaly
257.4007°
Eccentric anomaly
252.76063°
Mean motion
3.43705 °/min
Orbital period
104.74 mins
BSTAR
0.0039303
Loading maneuver chart data...
Computing Atmospheric mass density...
Loading historical data...
Loading historical data...
Loading historical data...
Loading historical data...
Loading historical data...
Loading historical data...
Loading historical data...

Documentation

Showing up to 5 results
|